My Profile
  1. Member Settings
  2. My Devices
  3. Sign Out
        More Settings
      Elev 945 ft, 33.661 °N 84.399 °W

      Atlanta, GA

      Hartsfield-Jackson Atlanta Intl Airport Station90°

      Daily Observations

      DateTemp High/LowDew Pt High/LowHumidityWindMax WindWind GustPressurePrecip.Condition
      7/31/1996 86 °F / 80 °F 73 °F / 69 °F 76 % 12 mph - 28.98 in 0.05 in
      7/30/1996 92 °F / 73 °F 71 °F / 64 °F 63 % 14 mph - 29.03 in 0 in
      7/29/1996 90 °F / 67 °F 69 °F / 65 °F 71 % 12 mph - 29.09 in 0 in
      7/28/1996 79 °F / 69 °F 69 °F / 64 °F 79 % 12 mph - 29.12 in 0.02 in
      7/27/1996 82 °F / 70 °F 71 °F / 63 °F 81 % 8 mph - 29.09 in 0.16 in
      7/26/1996 85 °F / 70 °F 72 °F / 66 °F 81 % 8 mph - 29.01 in 0.55 in
      7/25/1996 85 °F / 71 °F 75 °F / 64 °F 83 % 18 mph - 28.92 in 0.14 in
      7/24/1996 93 °F / 71 °F 69 °F / 65 °F 63 % 13 mph - 28.89 in 0.03 in
      7/23/1996 92 °F / 73 °F 70 °F / 66 °F 62 % 13 mph - 28.82 in 0 in
      7/22/1996 95 °F / 75 °F 74 °F / 72 °F 71 % 15 mph - 28.85 in 0 in
      7/21/1996 91 °F / 75 °F 74 °F / 70 °F 78 % 12 mph - 28.89 in 0.13 in
      7/20/1996 99 °F / 78 °F 75 °F / 68 °F 67 % 18 mph - 28.87 in 0.34 in
      7/19/1996 96 °F / 75 °F 72 °F / 66 °F 59 % 15 mph - 28.96 in 0 in
      7/18/1996 95 °F / 71 °F 71 °F / 66 °F 65 % 12 mph - 29.09 in 0 in
      7/17/1996 96 °F / 74 °F 72 °F / 66 °F 68 % 14 mph - 29.1 in 0 in
      7/16/1996 91 °F / 72 °F 71 °F / 68 °F 73 % 7 mph - 29.07 in 0 in
      7/15/1996 83 °F / 74 °F 73 °F / 70 °F 83 % 17 mph - 28.96 in 0.5 in
      7/14/1996 93 °F / 73 °F 72 °F / 66 °F 68 % 13 mph - 28.89 in 0 in
      7/13/1996 93 °F / 73 °F 72 °F / 66 °F 65 % 12 mph - 28.86 in 0.03 in
      7/12/1996 78 °F / 73 °F 65 °F / 62 °F 57 % 17 mph - 28.9 in 0 in
      7/11/1996 90 °F / 71 °F 68 °F / 57 °F 60 % 20 mph - 28.95 in 0 in
      7/10/1996 93 °F / 68 °F 64 °F / 54 °F 49 % 12 mph - 28.89 in 0 in
      7/9/1996 93 °F / 72 °F 71 °F / 59 °F 66 % 18 mph - 28.75 in 0.15 in
      7/8/1996 91 °F / 73 °F 71 °F / 67 °F 69 % 17 mph - 28.75 in 0.02 in
      7/7/1996 94 °F / 74 °F 72 °F / 65 °F 69 % 15 mph - 28.85 in 0 in
      7/6/1996 93 °F / 71 °F 69 °F / 60 °F 66 % 9 mph - 28.91 in 0 in
      7/5/1996 89 °F / 70 °F 70 °F / 55 °F 63 % 14 mph - 28.86 in 0 in
      7/4/1996 90 °F / 63 °F 57 °F / 51 °F 46 % 10 mph - 28.77 in 0 in
      7/3/1996 97 °F / 74 °F 71 °F / 52 °F 50 % 17 mph - 28.66 in 0 in
      7/2/1996 97 °F / 79 °F 71 °F / 63 °F 56 % 13 mph - 28.76 in 0 in
      7/1/1996 98 °F / 74 °F 70 °F / 63 °F 54 % 13 mph - 28.87 in 0 in

      Charts

      Temperature
      Precipitation
      Wind
      essentialaccessibility.com
      We recognize our responsibility to use data and technology for good. We may use or share your data with our data vendors. Take control of your data.
      Glossary